Tracking 19792 objects as of 16-Jul-2019
HD Live streaming from Space Station
objects crossing your sky now

COSMOS 1275 DEB

Track COSMOS 1275 DEB now!
10-day predictions


NORAD ID: 42100
Int'l Code: 1981-053PL
Perigee: 813.5 km
Apogee: 847.7 km
Inclination: 82.9 °
Period: 101.4 minutes
Semi major axis: 7201 km
RCS: Unknown
Launch date: June 4, 1981
Source: Commonwealth of Independent States (former USSR) (CIS)
Launch site: PLESETSK MISSILE AND SPACE COMPLEX (PKMTR)

Note: This is SATELLITE DEBRIS
aabbcc
Your satellite tracking list
Your tracking list is empty




NASA's NSSDC Master Catalog

Two Line Element Set (TLE):
1 42100U 81053PL  19194.57211902  .00000435  00000-0  19411-3 0  9996
2 42100  82.8689 139.8415 0023796 247.0412 112.8258 14.20556937291908
Source of the keplerian elements: AFSPC